When you browse on this site, cookies collect data to enhance your experience and personalize the content and advertising you see.
Visit our Privacy Policy to learn more. By continuing to use the site, you agree to this use of cookies and data.
  • In Spain
  • List of Countries
  • For 7 days
  • Water Temperature
  • Weather Map
  • Weather Widgets
  • user-avatar
    Login

    Hourly Weather Sumy

    Today, 3 June, Wednesday

    Time Temperature Precipitation Wind Pressure Humidity
    00:00 +10°C° 0 mm 1 mps 744 mmHg 89%
    01:00 +10°C° 0 mm 1 mps 744 mmHg 90%
    02:00 +10°C° 0 mm 1 mps 743 mmHg 91%
    03:00 +10°C° 0 mm 1 mps 743 mmHg 91%
    04:00 +10°C° 0 mm 1 mps 743 mmHg 91%
    05:00 +11°C° 0 mm 1 mps 743 mmHg 91%
    06:00 +13°C° 0 mm 1 mps 743 mmHg 85%
    07:00 +15°C° 0 mm 1 mps 743 mmHg 79%
    08:00 +16°C° 0 mm 1 mps 744 mmHg 73%
    09:00 +18°C° 0 mm 1 mps 743 mmHg 68%
    10:00 +19°C° 0 mm 1 mps 743 mmHg 64%
    11:00 +20°C° 0 mm 1 mps 743 mmHg 60%
    12:00 +20°C° 0.4 mm 1 mps 743 mmHg 62%
    13:00 +20°C° 0.4 mm 1 mps 743 mmHg 63%
    14:00 +19°C° 0.4 mm 2 mps 743 mmHg 65%
    15:00 +19°C° 0.5 mm 2 mps 743 mmHg 68%
    16:00 +18°C° 0.5 mm 2 mps 742 mmHg 72%
    17:00 +18°C° 0.5 mm 2 mps 742 mmHg 75%
    18:00 +16°C° 0.1 mm 1 mps 742 mmHg 78%
    19:00 +15°C° 0.1 mm 1 mps 742 mmHg 82%
    20:00 +12°C° 0.1 mm 0 mps 742 mmHg 85%
    21:00 +12°C° 0.1 mm 0 mps 742 mmHg 86%
    22:00 +12°C° 0.1 mm 0 mps 742 mmHg 87%
    23:00 +12°C° 0.1 mm 0 mps 741 mmHg 87%

    Tomorrow, 4 June, Thursday

    Time Temperature Precipitation Wind Pressure Humidity
    00:00 +13°C° 0.5 mm 1 mps 741 mmHg 90%
    01:00 +13°C° 0.5 mm 1 mps 741 mmHg 93%
    02:00 +12°C° 0.5 mm 1 mps 741 mmHg 95%
    03:00 +12°C° 0.9 mm 2 mps 741 mmHg 96%
    04:00 +12°C° 0.9 mm 2 mps 741 mmHg 96%
    05:00 +12°C° 0.9 mm 2 mps 741 mmHg 97%
    06:00 +12°C° 0.3 mm 2 mps 742 mmHg 96%
    07:00 +13°C° 0.3 mm 2 mps 742 mmHg 95%
    08:00 +13°C° 0.3 mm 2 mps 742 mmHg 93%
    09:00 +13°C° 0.4 mm 3 mps 742 mmHg 89%
    10:00 +15°C° 0.4 mm 4 mps 743 mmHg 85%
    11:00 +16°C° 0.4 mm 5 mps 743 mmHg 80%
    12:00 +17°C° 0.5 mm 5 mps 743 mmHg 78%
    13:00 +17°C° 0.5 mm 5 mps 743 mmHg 76%
    14:00 +19°C° 0.5 mm 5 mps 743 mmHg 73%
    15:00 +19°C° 0.2 mm 5 mps 743 mmHg 74%
    16:00 +19°C° 0.2 mm 5 mps 743 mmHg 76%
    17:00 +19°C° 0.2 mm 4 mps 743 mmHg 77%
    18:00 +17°C° 0.4 mm 4 mps 743 mmHg 81%
    19:00 +15°C° 0.4 mm 4 mps 743 mmHg 85%
    20:00 +13°C° 0.4 mm 4 mps 743 mmHg 89%
    21:00 +13°C° 0.1 mm 4 mps 743 mmHg 89%
    22:00 +13°C° 0.1 mm 4 mps 744 mmHg 90%
    23:00 +12°C° 0.1 mm 5 mps 744 mmHg 91%

    Day after tomorrow, 5 June, Friday

    Time Temperature Precipitation Wind Pressure Humidity
    00:00 +12°C° 0 mm 5 mps 744 mmHg 91%
    01:00 +12°C° 0 mm 5 mps 744 mmHg 91%
    02:00 +11°C° 0 mm 4 mps 744 mmHg 92%
    03:00 +10°C° 0 mm 5 mps 744 mmHg 92%
    04:00 +10°C° 0 mm 5 mps 744 mmHg 91%
    05:00 +10°C° 0 mm 5 mps 744 mmHg 91%
    06:00 +12°C° 0.3 mm 5 mps 744 mmHg 92%
    07:00 +13°C° 0.3 mm 5 mps 745 mmHg 92%
    08:00 +13°C° 0.3 mm 6 mps 745 mmHg 92%
    09:00 +14°C° 1.5 mm 5 mps 745 mmHg 93%
    10:00 +14°C° 1.5 mm 5 mps 745 mmHg 93%
    11:00 +14°C° 1.5 mm 5 mps 745 mmHg 94%
    12:00 +14°C° 1 mm 5 mps 745 mmHg 94%
    13:00 +14°C° 1 mm 5 mps 745 mmHg 95%
    14:00 +14°C° 1 mm 5 mps 745 mmHg 95%
    15:00 +15°C° 0.5 mm 5 mps 745 mmHg 93%
    16:00 +17°C° 0.5 mm 5 mps 745 mmHg 91%
    17:00 +19°C° 0.5 mm 4 mps 744 mmHg 89%
    18:00 +18°C° 0.6 mm 4 mps 745 mmHg 90%
    19:00 +18°C° 0.6 mm 3 mps 745 mmHg 90%
    20:00 +18°C° 0.6 mm 3 mps 745 mmHg 91%
    21:00 +17°C° 0.5 mm 3 mps 745 mmHg 91%
    22:00 +17°C° 0.5 mm 4 mps 745 mmHg 92%
    23:00 +17°C° 0.5 mm 4 mps 745 mmHg 93%

    6 June, Saturday

    Time Temperature Precipitation Wind Pressure Humidity
    00:00 +15°C° 0.1 mm 4 mps 746 mmHg 94%
    01:00 +15°C° 0.1 mm 4 mps 746 mmHg 94%
    02:00 +14°C° 0.1 mm 4 mps 746 mmHg 95%
    03:00 +14°C° 0 mm 4 mps 746 mmHg 95%
    04:00 +14°C° 0 mm 4 mps 746 mmHg 95%
    05:00 +14°C° 0 mm 4 mps 746 mmHg 95%
    06:00 +15°C° 0 mm 5 mps 747 mmHg 92%
    07:00 +16°C° 0 mm 5 mps 747 mmHg 90%
    08:00 +17°C° 0 mm 6 mps 747 mmHg 87%
    09:00 +20°C° 0 mm 6 mps 748 mmHg 83%
    10:00 +21°C° 0 mm 6 mps 748 mmHg 79%
    11:00 +23°C° 0 mm 7 mps 748 mmHg 75%
    12:00 +23°C° 0 mm 6 mps 749 mmHg 73%
    13:00 +24°C° 0 mm 6 mps 749 mmHg 71%
    14:00 +26°C° 0 mm 6 mps 749 mmHg 69%
    15:00 +25°C° 0 mm 5 mps 749 mmHg 72%
    16:00 +25°C° 0 mm 5 mps 749 mmHg 75%
    17:00 +25°C° 0 mm 4 mps 749 mmHg 79%
    18:00 +22°C° 0 mm 3 mps 749 mmHg 81%
    19:00 +21°C° 0 mm 3 mps 749 mmHg 83%
    20:00 +19°C° 0 mm 3 mps 749 mmHg 85%
    21:00 +19°C° 0 mm 3 mps 750 mmHg 85%
    22:00 +18°C° 0 mm 3 mps 750 mmHg 85%
    23:00 +18°C° 0 mm 4 mps 750 mmHg 84%

    7 June, Sunday

    Time Temperature Precipitation Wind Pressure Humidity
    00:00 +17°C° 0 mm 4 mps 750 mmHg 84%
    01:00 +16°C° 0 mm 3 mps 750 mmHg 84%
    02:00 +16°C° 0 mm 3 mps 751 mmHg 84%
    03:00 +14°C° 0 mm 3 mps 751 mmHg 85%
    04:00 +14°C° 0 mm 3 mps 751 mmHg 85%
    05:00 +14°C° 0 mm 3 mps 751 mmHg 86%
    06:00 +17°C° 0 mm 4 mps 751 mmHg 83%
    07:00 +19°C° 0 mm 4 mps 752 mmHg 81%
    08:00 +20°C° 0 mm 5 mps 752 mmHg 78%
    09:00 +22°C° 0 mm 5 mps 752 mmHg 76%
    10:00 +23°C° 0 mm 5 mps 752 mmHg 74%
    11:00 +26°C° 0 mm 5 mps 753 mmHg 71%
    12:00 +26°C° 0 mm 5 mps 752 mmHg 70%
    13:00 +27°C° 0 mm 5 mps 752 mmHg 69%
    14:00 +27°C° 0 mm 5 mps 752 mmHg 67%
    15:00 +27°C° 0.1 mm 4 mps 752 mmHg 71%
    16:00 +27°C° 0.1 mm 4 mps 752 mmHg 74%
    17:00 +26°C° 0.1 mm 3 mps 751 mmHg 77%
    18:00 +25°C° 0.1 mm 3 mps 751 mmHg 81%
    19:00 +22°C° 0.1 mm 3 mps 751 mmHg 84%
    20:00 +21°C° 0.1 mm 3 mps 751 mmHg 88%
    21:00 +20°C° 0 mm 3 mps 752 mmHg 89%
    22:00 +19°C° 0 mm 3 mps 752 mmHg 91%
    23:00 +19°C° 0 mm 3 mps 752 mmHg 92%

    8 June, Monday

    Time Temperature Precipitation Wind Pressure Humidity
    00:00 +18°C° 0 mm 3 mps 752 mmHg 92%
    01:00 +18°C° 0 mm 3 mps 752 mmHg 92%
    02:00 +17°C° 0 mm 3 mps 752 mmHg 92%
    03:00 +18°C° 0 mm 3 mps 752 mmHg 92%
    04:00 +18°C° 0 mm 3 mps 752 mmHg 91%
    05:00 +18°C° 0 mm 3 mps 752 mmHg 91%
    06:00 +20°C° 0 mm 3 mps 752 mmHg 87%
    07:00 +21°C° 0 mm 4 mps 752 mmHg 83%
    08:00 +23°C° 0 mm 4 mps 752 mmHg 78%
    09:00 +25°C° 0 mm 4 mps 752 mmHg 75%
    10:00 +26°C° 0 mm 4 mps 752 mmHg 71%
    11:00 +27°C° 0 mm 5 mps 752 mmHg 68%
    12:00 +28°C° 0 mm 4 mps 752 mmHg 67%
    13:00 +28°C° 0 mm 4 mps 752 mmHg 66%
    14:00 +28°C° 0 mm 4 mps 752 mmHg 64%
    15:00 +28°C° 0 mm 4 mps 751 mmHg 68%
    16:00 +28°C° 0 mm 3 mps 751 mmHg 72%
    17:00 +27°C° 0 mm 3 mps 751 mmHg 76%
    18:00 +26°C° 0 mm 3 mps 751 mmHg 79%
    19:00 +24°C° 0 mm 3 mps 751 mmHg 83%
    20:00 +22°C° 0 mm 3 mps 751 mmHg 86%
    21:00 +21°C° 0 mm 3 mps 751 mmHg 88%
    22:00 +20°C° 0 mm 3 mps 751 mmHg 89%
    23:00 +20°C° 0 mm 3 mps 751 mmHg 91%
    Show more